Flag for Poland Weather past 2 weeks in Częstochowa, Poland

Now
72 °F

Sunny.


Feels Like: 77 °F
Forecast: 56 / 74 °F
Wind: 10 mph from Southwest

Location: Katowice Airport

Current Time: Aug 29, 2014 at 5:17:26 PM

Latest Report: Aug 29, 2014 at 4:30 PM


Visibility: 10 mi

Pressure: 30.04 "Hg

Humidity: 38%

Dew point: 45 °F

Location of CzęstochowaLocation

Historic Weather in Częstochowa — Graph

°F

Częstochowa temperature yesterday

Maximum temperature yesterday: 68 °F (at 5:00 PM)
Minimum temperature yesterday: 48 °F (at 4:30 AM)
Average temperature yesterday: 57 °F

Past Weeks' High & Low Weather Summary

 TemperatureHumidityPressure
High73 °F (Aug 18, 1:00 PM)100% (Aug 15, 3:30 AM)30.09 "Hg (Aug 15, 3:30 AM)
Low43 °F (Aug 22, 4:30 AM)40% (Aug 22, 1:30 PM)29.74 "Hg (Aug 26, 12:00 PM)
Average58 °F77%29.95 "Hg
* Reported Aug 14 4:00 PM — Aug 29 4:00 PM, Częstochowa, Weather by CustomWeather, © 2014

Note: Actual official high and low records may vary slightly from our data, if they occured in-between our weather recording intervals... More about our weather records

Advertising

Częstochowa weather history for previous 24 hours

 ConditionsComfort  
Time TempWeatherWind HumidityBarometerVisibility
4:00 PM
Aug 29
72 °FPassing clouds.10 mph44%30.04 "HgN/A
3:30 PM72 °FPassing clouds.8 mph44%30.07 "HgN/A
3:00 PM72 °FSunny.10 mph41%30.07 "Hg10 mi
2:30 PM72 °FPassing clouds.8 mph41%30.07 "HgN/A
2:00 PM70 °FPassing clouds.8 mph43%30.07 "HgN/A
1:30 PM70 °FPassing clouds.9 mph43%30.07 "HgN/A
1:00 PM70 °FPassing clouds.10 mph43%30.07 "HgN/A
12:30 PM70 °FPassing clouds.12 mph40%30.07 "HgN/A
12:00 PM68 °FSunny.12 mph49%30.09 "Hg10 mi
11:30 AM66 °FPassing clouds.12 mph52%30.09 "HgN/A
11:00 AM66 °FPassing clouds.12 mph56%30.09 "HgN/A
10:30 AM64 °FPassing clouds.10 mph56%30.09 "HgN/A
10:00 AM64 °FPassing clouds.8 mph56%30.09 "HgN/A
9:30 AM63 °FPassing clouds.8 mph59%30.09 "HgN/A
9:00 AM61 °FSunny.8 mph63%30.09 "Hg10 mi
8:30 AM59 °FPassing clouds.6 mph68%30.09 "HgN/A
8:00 AM57 °FPassing clouds.3 mph72%30.09 "HgN/A
7:30 AM55 °FSunny.3 mph77%30.09 "Hg10 mi
7:00 AM50 °FClear.2 mph88%30.09 "Hg5 mi
6:30 AM52 °FClear.2 mph82%30.09 "Hg5 mi
6:00 AM50 °FFog.2 mph94%30.09 "Hg5 mi
5:30 AM46 °FFog.2 mph87%30.09 "Hg5 mi
5:00 AM46 °FClear.2 mph100%30.09 "Hg5 mi
4:30 AM45 °FClear.2 mph93%30.09 "Hg4 mi
4:00 AM45 °FClear.5 mph93%30.09 "Hg4 mi
3:30 AM46 °FClear.2 mph100%30.09 "Hg4 mi
3:00 AM45 °FClear.2 mph93%30.09 "Hg10 mi
2:30 AM45 °FClear.2 mph93%30.09 "Hg10 mi
2:00 AM46 °FClear.2 mph93%30.09 "Hg10 mi
1:30 AM45 °FClear.2 mph100%30.09 "Hg10 mi
1:00 AM46 °FClear.No wind93%30.09 "Hg10 mi
12:30 AM46 °FClear.No wind93%30.09 "Hg10 mi
12:00 AM48 °FClear.2 mph94%30.09 "Hg10 mi
11:30 PM
Aug 28
48 °FClear.No wind94%30.09 "Hg10 mi
11:00 PM50 °FClear.2 mph88%30.09 "Hg10 mi
10:30 PM52 °FClear.2 mph88%30.09 "Hg10 mi
10:00 PM54 °FClear.2 mph82%30.09 "Hg10 mi
9:30 PM55 °FClear.2 mph77%30.09 "Hg10 mi
9:00 PM57 °FClear.2 mph72%30.09 "Hg10 mi
8:30 PM59 °FSunny.2 mph68%30.09 "Hg10 mi
8:00 PM63 °FSunny.2 mph52%30.07 "Hg10 mi
7:30 PM64 °FSunny.5 mph43%30.07 "Hg10 mi
7:00 PM64 °FSunny.7 mph49%30.07 "Hg10 mi
6:30 PM66 °FSunny.7 mph40%30.07 "Hg10 mi
6:00 PM66 °FSunny.8 mph43%30.07 "Hg10 mi
5:30 PM64 °FPassing clouds.9 mph46%30.07 "HgN/A
5:00 PM68 °FSunny.10 mph43%30.07 "Hg10 mi
Weather by CustomWeather, © 2014

See weather overviewHow to use our weather pages